This demonstration page uses our WeatherBlox Daily Observations layout. Learn more.

Left ArrowRight Arrow

Hourly Observations for October 10, 2021

Temp ( °F °C ) Dew Point ( °F °C ) Humidity (%) Winds ( mph kmh ) Pressure ( in mb ) Visibility ( mi km ) Precip ( " mm )
12:56 am 00:56 Clear 57 13.9 46 7.8 67 67 NW 5 7 29.70 1006 10 16 N/A
1:56 am 01:56 Partly Cloudy 58 14.4 46 7.8 65 65 W 6 9 29.70 1006 10 16 N/A
2:56 am 02:56 Cloudy 56 13.3 47 8.3 72 72 WNW 12 19 29.70 1006 10 16 N/A
3:56 am 03:56 Mostly Clear 56 13.3 45 7.2 67 67 NW 17 28 29.67 1005 10 16 N/A
4:56 am 04:56 Clear 54 12.2 45 7.2 72 72 WNW 14 22 29.70 1006 10 16 N/A
5:56 am 05:56 Clear 52 11.1 45 7.2 77 77 WNW 12 19 29.72 1007 10 16 N/A
6:56 am 06:56 Clear 51 10.6 45 7.2 80 80 WNW 10 17 29.73 1007 10 16 N/A
7:56 am 07:56 Sunny 50 10 45 7.2 83 83 NW 9 15 29.74 1007 10 16 N/A
8:56 am 08:56 Sunny 53 11.7 46 7.8 77 77 WNW 10 17 29.75 1008 10 16 N/A
9:56 am 09:56 Sunny 58 14.4 47 8.3 67 67 NNW 14 22 29.75 1008 10 16 N/A
10:56 am 10:56 Sunny 62 16.7 46 7.8 56 56 NNW 20 31 29.75 1007 10 16 N/A
11:56 am 11:56 Sunny 63 17.2 43 6.1 48 48 N 21 33 29.76 1008 10 16 N/A
12:56 pm 12:56 Sunny 65 18.3 41 5 42 42 NNW 20 31 29.75 1007 10 16 N/A
1:56 pm 13:56 Sunny 67 19.4 37 2.8 33 33 N 14 22 29.74 1007 10 16 N/A
2:56 pm 14:56 Sunny 68 20 36 2.2 31 31 N 13 20 29.73 1007 10 16 N/A
3:56 pm 15:56 Sunny 67 19.4 38 3.3 35 35 N 12 19 29.72 1007 10 16 N/A
4:56 pm 16:56 Sunny 67 19.4 38 3.3 35 35 N 5 7 29.72 1007 10 16 N/A
5:56 pm 17:56 Sunny 66 18.9 36 2.2 33 33 N 9 15 29.75 1008 10 16 N/A
6:56 pm 18:56 Sunny 64 17.8 37 2.8 37 37 N 8 13 29.76 1008 10 16 N/A
7:56 pm 19:56 Clear 60 15.6 38 3.3 44 44 NNW 6 9 29.78 1009 10 16 N/A
8:56 pm 20:56 Clear 57 13.9 39 3.9 51 51 N 6 9 29.77 1008 10 16 N/A
9:56 pm 21:56 Clear 52 11.1 40 4.4 64 64 NW 6 9 29.75 1007 10 16 N/A
10:56 pm 22:56 Clear 52 11.1 40 4.4 64 64 NNW 6 9 29.75 1007 10 16 N/A
11:56 pm 23:56 Clear 50 10 40 4.4 68 68 NW 6 9 29.74 1007 10 16 N/A

Powered by AerisWeather